Location: Barrett Brook
(44.3123°N, 71.7154°W)
Time: 02:54:33
(UTC+00:00)

Envisat - Pass Details

Date: 19 October 2024
Orbit: 762 x 763 km, 98.3° (Epoch: 04 November)

Event Time Altitude Azimuth Distance (km) Brightness Sun altitude
Rises 07:40:38 0° 16° (NNE) 3,235 6.7 -37.0°
Reaches altitude 10° 07:42:58 10° 20° (NNE) 2,305 5.9 -36.6°
Enters shadow 07:44:45 22° 26° (NNE) 1,636 5.1 -36.3°
